Regional Weather Roundup
Issued by NWS

Home | Current Version | Previous Version | Graphics & Text | Print | Product List | Glossary On
Versions: 1 2 3 4 5 6 7 8 9 10 11 12 13 14 15 16 17 18 19 20 21 22 23 24 25 26 27 28 29 30 31 32 33 34 35 36 37 38 39 40 41 42 43 44 45 46 47 48 49 50
000
ASUS43 KDMX 281008
RWRIA

WEATHER ROUNDUP FOR IOWA
NATIONAL WEATHER SERVICE DES MOINES IA
500 AM CDT WED SEP 28 2016

NOTE: "FAIR" INDICATES FEW OR NO CLOUDS BELOW 12,000 FEET WITH NO
SIGNIFICANT WEATHER AND/OR OBSTRUCTIONS TO VISIBILITY.

* - THESE STATIONS ARE NOT NWS STATIONS...THUS NOT UNDER NWS
QUALITY CONTROL.  THEY ALSO DO NOT REPORT WEATHER SUCH
AS PRECIPITATION OR FOG.

IAZ001>003-012>014-020>022-031>034-043>046-281100-
   NORTHWEST IOWA

CITY           SKY/WX    TMP DP  RH WIND       PRES   REMARKS
CARROLL *      MOCLDY    48  45  87 N7        29.98R
CHEROKEE *     PTCLDY    46  44  94 N6        30.02R
DENISON *      CLEAR     46  43  87 N3        29.98R
LE MARS *      PTCLDY    46  43  87 N7        30.04R
ORANGE CITY *  PTCLDY    46  43  87 N7        30.04R
SHELDON *      CLOUDY    45  45 100 N6        30.03R
SIOUX CITY     CLEAR     46  41  82 NW7       30.04R
SPENCER        CLOUDY    48  43  82 N10       30.03R
STORM LAKE *   PTCLDY    45  43  93 N7        30.01R
$$

IAZ055>058-069>071-079>083-090>094-281100-
   SOUTHWEST IOWA

CITY           SKY/WX    TMP DP  RH WIND       PRES   REMARKS
ATLANTIC *     CLEAR     46  43  87 N7        29.98R
AUDUBON *      CLEAR     48  43  81 N8        29.99R
CLARINDA *       N/A     48  46  93 MISG      29.96R
COUNCIL BLFS * CLEAR     48  43  81 N5        29.99R
CRESTON *      CLEAR     50  43  76 N12G17    29.95R
HARLAN  *      CLEAR     46  43  87 N6        30.02R
LAMONI         CLOUDY    53  44  71 N9        29.91R
RED OAK *      CLEAR     46  43  87 N7        29.97R
SHENANDOAH *   CLEAR     52  45  76 N9        29.97R
$$

IAZ047>049-059>061-072>074-084-281100-
   CENTRAL IOWA

CITY           SKY/WX    TMP DP  RH WIND       PRES   REMARKS
AMES           CLOUDY    51  45  79 N10       29.95R
ANKENY *         N/A    N/A N/A N/A MISG        N/A
BOONE *        CLOUDY    50  45  81 N9        29.95R
CHARITON *       N/A     54  45  71 N13       29.91R
DES MOINES     PTCLDY    54  44  69 N12       29.94R
GRINNELL*      CLOUDY    49  44  81 N7        29.93R
KNOXVILLE *    MOCLDY    54  43  66 N16G23    29.91R
MARSHALLTOWN   CLOUDY    50  45  83 N13       29.93R
NEWTON *       MOCLDY    50  45  81 N10       29.92R
PELLA *        PTCLDY    50  43  76 N7        29.93R
PERRY *          N/A     49  46  88 N8        29.97R
$$

IAZ004>006-015-016-023>025-035-036-281100-
   NORTH CENTRAL IOWA

CITY           SKY/WX    TMP DP  RH WIND       PRES   REMARKS
ALGONA *       CLOUDY    50  45  81 N10       30.00R
CLARION *      CLOUDY    50  45  81 N13       29.97R
ESTHERVILLE    CLOUDY    47  44  90 N17       30.02R
FORT DODGE *   CLOUDY    48  39  71 N6        29.99R
MASON CITY     CLOUDY    50  44  80 N14       29.98R
FOREST CITY *  CLOUDY    48  43  81 N12       29.98R
WEBSTER CITY * CLOUDY    50  45  81 NW13G20   29.95R
IOWA FALLS *   CLOUDY    51  43  76 N10       29.96R
$$

IAZ007>011-017>019-026>030-037>042-050>054-066-281100-
   NORTHEAST IOWA

CITY           SKY/WX    TMP DP  RH WIND       PRES   REMARKS
CEDAR RAPIDS   CLOUDY    50  45  83 N14       29.89R
CHARLES CITY * CLOUDY    50  45  81 N12       29.94R
CLINTON *      MOCLDY    49  45  86 N9        29.86R
DECORAH *      CLOUDY    48  46  93 N7        29.91R
DUBUQUE        CLOUDY    49  44  83 N13       29.87R
MONTICELLO *   CLOUDY    52  45  76 NW14      29.87R
OELWEIN *      CLOUDY    50  45  81 N12       29.92R
WATERLOO       CLOUDY    50  43  77 N12       29.92R
$$

IAZ064-065-067-068-078-281100-
   EAST CENTRAL IOWA

CITY           SKY/WX    TMP DP  RH WIND       PRES   REMARKS
DAVENPORT      MOCLDY    50  44  80 N10       29.86R
IOWA CITY      CLOUDY    52  43  71 N9        29.90R
MT. PLEASANT * MOCLDY    56  45  67 N15G22    29.86R
MUSCATINE *    CLOUDY    52  43  71 N13       29.87R
QUAD CITIES    MOCLDY    53  43  68 N10       29.84R
$$

IAZ062-063-075>077-085>089-095>099-281100-
   SOUTHEAST IOWA

CITY           SKY/WX    TMP DP  RH WIND       PRES   REMARKS
BURLINGTON     CLOUDY    56  45  66 N14       29.83R
FAIRFIELD *    CLOUDY    54  43  66 N13G20    29.87R
FORT MADISON * CLOUDY    55  45  67 N6        29.85R
KEOKUK *       CLOUDY    57  43  58 N7        29.83R
OSKALOOSA *    MOCLDY    51  43  73 N12       29.91R
OTTUMWA        CLOUDY   N/A N/A N/A N21       29.90R
WASHINGTON *     N/A    N/A N/A N/A MISG        N/A
$$

ABBREVIATIONS USED IN REMARKS
   TC - TEMPERATURES IN CELSIUS
  WCI - WIND CHILL INDEX
   HX - HEAT INDEX
  VSB - VISIBILITY
$$





USA.gov is the U.S. government's official web portal to all federal, state and local government web resources and services.